Regional Weather Roundup
Issued by NWS

Home | Current Version | Previous Version | Graphics & Text | Print | Product List | Glossary On
Versions: 1 2 3 4 5 6 7 8 9 10 11 12 13 14 15 16 17 18 19 20 21 22 23 24 25 26 27 28 29 30 31 32 33 34 35 36 37 38 39 40 41 42 43 44 45 46 47 48 49 50
769
ASUS43 KLSX 260610
RWRMO

WEATHER SUMMARY FOR MISSOURI
NATIONAL WEATHER SERVICE SPRINGFIELD MO
100 AM CDT TUE JUL 26 2016

NOTE: "FAIR" INDICATES FEW OR NO CLOUDS BELOW 12,000 FEET WITH NO
       SIGNIFICANT WEATHER AND/OR OBSTRUCTIONS TO VISIBILITY.
       CURRENT SKY AND/OR WEATHER CONDITIONS ARE NOT AVAILABLE FOR
       CHILLICOTHE AND FARMINGTON.

MOZ001>031-035>038-043-044-053-054-260700-
...NORTHERN AND WESTERN MISSOURI...

CITY           SKY/WX    TMP DP  RH WIND       PRES   REMARKS
KANSAS CTY INT PTCLDY    75  69  81 NE6       30.06F
6HR MIN TEMP:  75; 6HR MAX TEMP:  83;

KANSAS C DTWN  CLOUDY    78  67  68 NE6       30.04S
6HR MIN TEMP:  78; 6HR MAX TEMP:  85;

LEE`S SUMMIT   PTCLDY    76  69  79 E5        30.06S
6HR MIN TEMP:  76; 6HR MAX TEMP:  81;

ST JOSEPH      PTCLDY    68  66  93 N3        30.06S
6HR MIN TEMP:  68; 6HR MAX TEMP:  85;

CHILLICOTHE      N/A     72  69  90 CALM      30.07F
6HR MIN TEMP:  72; 6HR MAX TEMP:  86;

KIRKSVILLE     FOG       65  64  97 CALM      30.07F VSB 1/2
6HR MIN TEMP:  65; 6HR MAX TEMP:  83;


$$
MOZ066>068-077>081-088>096-101>105-260700-
...SOUTHWEST MISSOURI...

CITY           SKY/WX    TMP DP  RH WIND       PRES   REMARKS
SPRINGFIELD    CLEAR     75  71  87 NE6       30.03F
6HR MIN TEMP:  75; 6HR MAX TEMP:  84;

JOPLIN         CLEAR     74  73  97 E3        30.04R
6HR MIN TEMP:  74; 6HR MAX TEMP:  82;

BRANSON        CLOUDY    73  72  94 CALM      30.04S

$$
MOZ032>034-039>042-045>050-055>058-069>072-260700-
...CENTRAL MISSOURI...

CITY           SKY/WX    TMP DP  RH WIND       PRES   REMARKS
COLUMBIA       PTCLDY    71  69  93 E5        30.04F
6HR MIN TEMP:  71; 6HR MAX TEMP:  80;

JEFFERSON CITY CLEAR     71  70  96 CALM      30.03F
6HR MIN TEMP:  71; 6HR MAX TEMP:  83;

ROLLA          CLEAR     72  70  93 NE5       30.03F
6HR MIN TEMP:  72; 6HR MAX TEMP:  81;

SEDALIA        PTCLDY    73  70  90 CALM      30.05F
6HR MIN TEMP:  73; 6HR MAX TEMP:  81;

WHITEMAN AFB   MOCLDY    74  74 100 NE3       30.03F
OSAGE BEACH    CLOUDY    73  71  93 NE3       30.04F

$$
MOZ051-052-059>065-260700-
...EAST CENTRAL MISSOURI...

CITY           SKY/WX    TMP DP  RH WIND       PRES   REMARKS
ST LOUIS INTL  CLOUDY    79  74  84 N6        30.02S
6HR MIN TEMP:  80; 6HR MAX TEMP:  85;

SPIRIT OF STL  CLOUDY    76  75  97 W3        30.01F
6HR MIN TEMP:  75; 6HR MAX TEMP:  83;

ST CHARLES     CLOUDY    78  75  90 CALM      30.01F
6HR MIN TEMP:  77; 6HR MAX TEMP:  83;


$$
MOZ072>076-082>087-097>100-106>115-260700-
...SOUTH CENTRAL AND SOUTHEAST MISSOURI...

CITY           SKY/WX    TMP DP  RH WIND       PRES   REMARKS
CAPE GIRARDEAU CLEAR     76  74  93 W3        29.98F
6HR MIN TEMP:  75; 6HR MAX TEMP:  81;

FARMINGTON     PTCLDY    77  71  82 CALM      30.03F
6HR MIN TEMP:  77; 6HR MAX TEMP:  84;

POPLAR BLUFF   PTCLDY    76  75  97 CALM      29.98F
6HR MIN TEMP:  76; 6HR MAX TEMP:  82;

WEST PLAINS    CLOUDY    76  73  91 CALM      30.05F
6HR MIN TEMP:  75; 6HR MAX TEMP:  84; 6HR PCP:  0.08;


$$




USA.gov is the U.S. government's official web portal to all federal, state and local government web resources and services.